Location: Unspecified
(0.0000°N, 0.0000°E)
Time: 12:06:57
(UTC+00:00)

Vanguard 3 - All Passes

Search period start: 07 October 2022 00:00
Search period end: 17 October 2022 00:00
Orbit: 508 x 3257 km, 33.3° (Epoch: 06 October)

Date Brightness Start Highest point End Pass type
(mag) Time Alt. Az. Time Alt. Az. Time Alt. Az.
07 Oct - 02:07:47 10° SW 02:17:06 49° SSE 02:22:28 10° ENE night (unlit)
07 Oct - 04:24:05 10° W 04:28:43 22° NW 04:32:07 10° NNE visible
07 Oct - 13:17:40 10° NNW 13:26:48 45° NE 13:41:59 10° ESE daylight
07 Oct - 15:28:54 10° WNW 15:41:38 70° SW 16:01:08 10° SE daylight
07 Oct - 17:45:32 10° W 18:00:07 32° SSW 18:16:48 10° SSE visible
07 Oct - 20:10:43 10° SW 20:21:54 17° S 20:32:01 10° SSE visible
07 Oct - 22:34:50 10° SSW 22:43:41 16° S 22:50:38 10° SE visible
08 Oct - 00:50:49 10° SW 01:01:12 32° SSE 01:07:35 10° E night (unlit)
08 Oct - 03:06:17 10° WSW 03:14:30 64° NW 03:19:19 10° NE visible
08 Oct - 12:04:52 10° N 12:11:18 23° NE 12:20:45 10° E daylight
08 Oct - 14:14:00 10° NW 14:24:34 82° NE 14:42:39 10° SE daylight
08 Oct - 16:27:40 10° W 16:41:14 44° SSW 16:59:39 10° SE daylight
08 Oct - 18:48:29 10° WSW 19:01:40 22° SSW 19:15:03 10° SSE visible
08 Oct - 21:14:44 10° SSW 21:24:27 16° S 21:32:39 10° SSE visible
08 Oct - 23:33:24 10° SSW 23:44:16 24° SSE 23:51:41 10° ESE visible
09 Oct - 01:48:53 10° SW 01:59:37 64° SSE 02:05:31 10° ENE night (unlit)
09 Oct - 04:06:35 10° W 04:11:07 19° NW 04:14:30 10° N visible
09 Oct - 13:00:06 10° NNW 13:08:34 50° NE 13:23:12 10° ESE daylight
09 Oct - 15:11:29 10° WNW 15:23:13 62° SSW 15:41:53 10° SE daylight
09 Oct - 17:28:23 10° WSW 17:41:54 29° SSW 17:57:52 10° SSE daylight
09 Oct - 19:53:02 10° SW 20:04:14 17° S 20:14:34 10° SSE visible
09 Oct - 22:15:11 10° SSW 22:26:12 19° SSE 22:34:33 10° SE visible
10 Oct - 00:31:27 10° SW 00:43:41 40° SSE 00:50:52 10° E visible
10 Oct - 02:47:57 10° WSW 02:56:52 52° NW 03:02:02 10° NE visible
10 Oct - 11:47:15 10° N 11:53:21 25° NE 12:02:36 10° E daylight
10 Oct - 13:56:33 10° NW 14:06:16 89° SW 14:23:29 10° SE daylight
10 Oct - 16:10:26 10° W 16:22:57 39° SSW 16:40:23 10° SE daylight
10 Oct - 18:31:24 10° SW 18:43:46 20° SSW 18:56:39 10° SSE visible
10 Oct - 20:55:49 10° SSW 21:06:54 17° S 21:16:14 10° SE visible
10 Oct - 23:13:46 10° SSW 23:26:42 29° SSE 23:35:11 10° ESE visible
11 Oct - 01:29:57 10° SW 01:41:58 80° SE 01:48:26 10° ENE night (unlit)
11 Oct - 03:49:04 10° W 03:53:28 17° NW 03:56:49 10° N visible
11 Oct - 12:42:37 10° NW 12:50:26 56° NE 13:04:23 10° ESE daylight
11 Oct - 14:54:12 10° WNW 15:05:00 53° SSW 15:22:31 10° SE daylight
11 Oct - 17:11:24 10° WSW 17:23:50 26° SSW 17:38:51 10° SSE daylight
11 Oct - 19:35:14 10° SW 19:46:35 17° S 19:57:15 10° SE visible
11 Oct - 21:55:38 10° SSW 22:08:35 23° SSE 22:18:12 10° ESE visible
12 Oct - 00:12:05 10° SW 00:26:01 50° SSE 00:33:57 10° ENE visible
12 Oct - 02:29:34 10° WSW 02:39:07 44° NW 02:44:41 10° NNE night (unlit)
12 Oct - 11:29:41 10° NNW 11:35:26 28° NE 11:44:24 10° E daylight
12 Oct - 13:39:13 10° WNW 13:48:07 78° SW 14:04:15 10° SE daylight
12 Oct - 15:53:24 10° W 16:04:51 33° SSW 16:21:00 10° SE daylight
12 Oct - 18:14:23 10° SW 18:25:58 19° S 18:38:18 10° SSE visible
12 Oct - 20:36:52 10° SSW 20:49:15 19° S 20:59:43 10° SE visible
12 Oct - 22:54:12 10° SW 23:08:58 36° SSE 23:18:26 10° E visible
13 Oct - 01:10:59 10° SW 01:24:10 86° NW 01:31:14 10° NE night (unlit)
13 Oct - 03:31:36 10° WNW 03:35:47 15° NW 03:39:04 10° N visible
13 Oct - 12:25:12 10° NW 12:32:23 64° NE 12:45:32 10° ESE daylight
13 Oct - 14:37:04 10° W 14:46:56 46° SSW 15:03:04 10° SE daylight
13 Oct - 16:54:37 10° WSW 17:05:55 23° SSW 17:19:45 10° SSE daylight
13 Oct - 19:17:21 10° SSW 19:28:55 18° S 19:40:00 10° SE visible
13 Oct - 21:36:10 10° SSW 21:50:48 27° SSE 22:01:34 10° ESE visible
13 Oct - 23:52:43 10° SW 00:08:11 60° SSE 00:16:53 10° ENE visible
14 Oct - 02:11:10 10° WSW 02:21:15 38° NW 02:27:15 10° NNE night (unlit)
14 Oct - 11:12:09 10° NNW 11:17:34 31° NE 11:26:12 10° E daylight
14 Oct - 13:21:59 10° WNW 13:30:08 67° SSW 13:44:58 10° SE daylight
14 Oct - 15:36:33 10° WSW 15:46:55 29° SSW 16:01:32 10° SSE daylight
14 Oct - 17:57:24 10° SW 18:08:15 18° S 18:20:00 10° SSE visible
14 Oct - 20:17:55 10° SSW 20:31:29 22° SSE 20:43:02 10° ESE visible
14 Oct - 22:34:40 10° SW 22:51:03 42° SSE 23:01:29 10° E visible
15 Oct - 00:51:59 10° WSW 01:06:13 75° NW 01:13:55 10° NE night (unlit)
15 Oct - 03:14:10 10° WNW 03:18:04 14° NW 03:21:14 10° NNW night (unlit)
15 Oct - 10:01:48 10° NNE 10:03:04 11° NE 10:04:25 10° NE daylight
15 Oct - 12:07:52 10° NW 12:14:28 75° NE 12:26:40 10° ESE daylight
15 Oct - 14:20:05 10° W 14:29:03 38° SSW 14:43:32 10° SE daylight
15 Oct - 16:38:00 10° SW 16:48:09 20° S 17:00:35 10° SSE daylight
15 Oct - 18:59:19 10° SSW 19:11:12 18° S 19:22:48 10° SE visible
15 Oct - 21:16:46 10° SSW 21:32:50 31° SSE 21:44:44 10° E visible
15 Oct - 23:33:22 10° SW 23:50:09 71° SSE 23:59:39 10° ENE visible
16 Oct - 01:52:45 10° WSW 02:03:19 34° NW 02:09:45 10° NNE night (unlit)
16 Oct - 10:54:40 10° NNW 10:59:44 35° NE 11:07:59 10° ESE daylight
16 Oct - 13:04:53 10° WNW 13:12:19 55° SSW 13:25:41 10° SE daylight
16 Oct - 15:19:56 10° WSW 15:29:08 24° SSW 15:41:59 10° SSE daylight
16 Oct - 17:40:23 10° SW 17:50:35 17° S 18:01:46 10° SE daylight
16 Oct - 19:58:58 10° SSW 20:13:33 24° SSE 20:26:11 10° ESE visible
16 Oct - 22:15:12 10° SW 22:32:57 49° SSE 22:44:21 10° E visible
